This is the latest recevied weather packets stored in our database for station/object KE8DDT-7. If no packets are shown the sender has not sent any weather packets the latest 10 day(s).
| Time | Temp. | Humidity | Pressure | Rain* | Wind** | Luminosity | Snow |
|---|---|---|---|---|---|---|---|
| 1778071110 | 7.22° C | 62% | 1003.1 hPa | 0 mm | - | 378 W/m² | - |
| 1778070810 | 7.22° C | 62% | 1002.9 hPa | 0 mm | - | 360 W/m² | - |
| 1778070487 | 6.67° C | 63% | 1002.9 hPa | 0 mm | - | 343 W/m² | - |
| 1778070125 | 6.67° C | 65% | 1002.8 hPa | 0 mm | - | 320 W/m² | - |
| 1778069461 | 6.11° C | 66% | 1002.6 hPa | 0 mm | - | 165 W/m² | - |
| 1778068878 | 6.11° C | 67% | 1002.4 hPa | 0 mm | - | 42 W/m² | - |
| 1778068578 | 6.11° C | 67% | 1002.5 hPa | 0 mm | - | 70 W/m² | - |
| 1778068278 | 6.11° C | 66% | 1002.5 hPa | 0 mm | - | 58 W/m² | - |
| 1778067978 | 6.11° C | 67% | 1002.5 hPa | 0 mm | - | 42 W/m² | - |
| 1778067679 | 6.11° C | 66% | 1002.5 hPa | 0 mm | - | 49 W/m² | - |
| 1778067378 | 6.11° C | 67% | 1002.6 hPa | 0 mm | - | 56 W/m² | - |
| 1778067078 | 6.11° C | 67% | 1002.3 hPa | 0 mm | - | 63 W/m² | - |
| 1778066778 | 5.56° C | 66% | 1002.1 hPa | 0 mm | - | 62 W/m² | - |
| 1778066478 | 5.56° C | 67% | 1002.1 hPa | 0 mm | - | 58 W/m² | - |
| 1778066178 | 5.56° C | 66% | 1002.1 hPa | 0 mm | - | 49 W/m² | - |
| 1778065400 | 6.11° C | 66% | 1002 hPa | 0 mm | - | 23 W/m² | - |
| 1778064798 | 6.11° C | 65% | 1001.8 hPa | 0 mm | - | 14 W/m² | - |
| 1778064495 | 6.11° C | 65% | 1001.7 hPa | 0 mm | - | 12 W/m² | - |
| 1778064199 | 6.11° C | 65% | 1001.7 hPa | 0 mm | - | 9 W/m² | - |
| 1778063895 | 6.11° C | 65% | 1001.7 hPa | 0 mm | - | 5 W/m² | - |
| 1778063596 | 6.67° C | 65% | 1001.5 hPa | 0 mm | - | 0 W/m² | - |
| 1778063295 | 6.67° C | 64% | 1001.5 hPa | 0 mm | - | 0 W/m² | - |
| 1778062998 | 6.67° C | 65% | 1001.3 hPa | 0 mm | - | 0 W/m² | - |
| 1778062697 | 6.67° C | 65% | 1001.4 hPa | 0 mm | - | 0 W/m² | - |
| 1778062398 | 6.67° C | 65% | 1001.4 hPa | 0 mm | - | 0 W/m² | - |
* Rain latest hour (hover to see other rain measurements)
** Current wind speed in m/s (hover to see current wind gust speed)